Location: Uhlířské Janovice, 285 04, Česko
(49.8369°N, 15.0553°E)
Time: 11:27:58
(UTC+02:00)

ISS - Visible Passes

Search period start: 30 September 2022 00:00
Search period end: 10 October 2022 00:00
Orbit: 414 x 417 km, 51.6° (Epoch: 30 September)

Date Brightness Start Highest point End Pass type
(mag) Time Alt. Az. Time Alt. Az. Time Alt. Az.
30 Sep -3.6 19:44:13 10° WNW 19:47:33 69° SSW 19:49:52 18° ESE visible
30 Sep -1.0 21:21:36 10° W 21:22:45 15° WSW 21:22:45 15° WSW visible
01 Oct -2.0 20:32:25 10° W 20:35:13 25° SW 20:35:58 23° SSW visible
02 Oct -2.5 19:43:24 10° W 19:46:31 36° SSW 19:49:15 13° SE visible
03 Oct -0.9 20:32:35 10° WSW 20:33:52 12° SW 20:35:10 10° SSW visible
04 Oct -1.2 19:42:51 10° W 19:45:14 18° SW 19:47:35 10° S visible
